Apple Cup Yearling Classic - Race 4 - Lakeview OR

Station: Lakeview OR - A Race

Distance: 297 Miles    

Release: 18-May-2017 06:35

Weather Release: Clear    Arrival: Clear

Wind at Release: Calm     Wind at Arrival: 3-5 SW

Temp at Release: 33°    Temp at Arrival: 70°

Lofts: 76

Birds: 134

Clocked: 110

Beautiful Sunny Day!
Drops Pos Breeder Pigeon Name Color Sex Ent Arrival Speed To Win Eligible ABC
5000 1 Nanez Family Lofts - WI 44187-AU16-AA GRANDCHILD IRON CLAD BB H 1 12:38:42.83 1437.174 00:00:00 Yes
2500 2 Floridian Loft - FL 2539-AU16-SCHE DEN 39 BB H 1 12:39:09.78 1435.401 00:00:26 Yes
1500 3 Bird Dog Syndicate 2 - CA 0017-AU16-BURG BC H 1 12:45:20.32 1411.465 00:06:37 Yes
1000 4 Kfly Racing Pigeon Loft - ID 1679-AU16-KFLY PW x Stichelbaut/Clausing SILV C 1 12:45:23.22 1411.281 00:06:40 Yes
750 5 Applis Loft - MO 14332-AU16-AA Let Me Fly BB H 1 12:46:35.40 1406.712 00:07:52 Yes
345 6 Floridian Loft - FL 2564-AU16-SCHE DEN 64 BB H 2 12:46:37.58 1406.574 00:07:54 Yes
345 7 Greek Connection - SC 0070-AU16-GREK 3395x220 BB H 1 12:46:48.39 1405.893 00:08:05 Yes
345 8 Mc Cormick Loft - CA 0752-AU16-WEF BLK H 1 12:47:21.87 1403.786 00:08:39 Yes
345 9 Huan Qiu Zhang - NC 0146-IF16-JNC BC H 1 12:48:14.15 1400.509 00:09:31 Yes
1560 10 Ganus Family Loft - IN 0669-AU16-GFL BB H 1 12:48:35.45 1399.178 00:09:52 Yes
11 Ganus Family Loft - IN 0626-AU16-GFL BB H 2 12:48:35.68 1399.163 00:09:52 Yes
12 A-Lin Loft - ME 41989-AU16-AA BC H 1 12:48:39.91 1398.899 00:09:57 Yes
13 Tres Coronas Loft - CA 3388-AU16-SANT Appetite For Speed BRON H 1 12:48:41.84 1398.779 00:09:59 Yes
14 Dream Loft-Silvercreek - MI 41006-AU16-AA BB H 1 12:48:44.89 1398.589 00:10:02 Yes
15 Fassio/Royer Team - UT 6272-AU16-SLI BC H 1 12:48:48.61 1398.357 00:10:05 Yes
16 Val & Bill - BC 1706-CU16-WCW BB H 1 12:48:48.98 1398.334 00:10:06 Yes
17 Greek Connection - SC 0071-AU16-GREK 3395x220 BB H 2 12:48:51.24 1398.193 00:10:08 Yes
18 Dream Team - VT 6995-AU16-ARPU 1304x3658 BB H 1 12:48:54.31 1398.002 00:10:11 Yes
19 Greek Connection - SC 0285-AU16-GREK 205xCHARL BC H 3 12:48:55.14 1397.950 00:10:12 Yes
20 J H C - AL 45687-AU16-ARPU BB H 1 12:48:57.67 1397.792 00:10:14 Yes
21 Racing Pigeon Mall - WA 0636-AU16-RPM DC H 1 12:49:01.82 1397.534 00:10:18 Yes
600 22 Lazy A C Loft - IN 0618-AU16-INDY BC H 1 12:49:02.18 1397.511 00:10:19 Yes
400 23 Lazy A C Loft - IN 0613-AU16-INDY BB H 2 12:49:05.94 1397.277 00:10:23 Yes
24 Floridian Loft - FL 2573-AU16-SCHE DEN 73 BB H 3 12:49:24.53 1396.121 00:10:41 Yes
25 Floridian Loft - FL 2591-AU16-SCHE DEN 91 BC H 4 12:49:47.45 1394.698 00:11:04 Yes
26 Crooked Arrow Loft - IA 6770-AU16-NYKA BC H 1 12:49:58.13 1394.036 00:11:15 Yes
27 John Mc Cullough - NM 0563-AU16-NMRP BC H 1 12:50:31.81 1391.952 00:11:48 Yes
28 Jones Boys - UT 7370-AU16-SLI BB H 1 12:50:37.92 1391.575 00:11:55 Yes
29 Cactus Lofts - BC 0924-AU16-AONE BC H 1 12:50:38.10 1391.564 00:11:55 Yes
30 Nanez Family Lofts - WI 6770-AU16-NFL Son Ironclad-dau.Constans BC H 2 12:50:41.29 1391.367 00:11:58 Yes
31 Jing X Zheng - WA 6692-AU16-SWWR BBWF H 1 12:50:45.69 1391.095 00:12:02 Yes
32 A-Champ & Rafter\'s Family Loft - TX 0045-AU16-CHAM BB H 1 12:50:48.75 1390.906 00:12:05 Yes
33 Crooked Arrow Loft - IA 1404-AU16-GNEO BCWF H 2 12:51:42.56 1387.595 00:12:59 Yes
34 Woodland Loft - NY 0004-IF16-WOOD BC H 1 12:51:46.34 1387.363 00:13:03 Yes
35 Paine-Rose - CA 0146-AU16-GSF BB H 1 12:52:29.03 1384.748 00:13:46 Yes
36 Spring Break 300 - UT 9435-AU16-AA BB H 1 12:53:21.69 1381.536 00:14:38 Yes
37 Ken Easley & Son Racing - NM 4513-AU16-EASL Revelation BB C 1 12:53:32.24 1380.894 00:14:49 Yes
38 Ed Kehl - UT 0306-AU16-WFA BC H 1 12:55:11.80 1374.867 00:16:28 Yes
215 39 Nanez Family Lofts - WI 6768-AU16-NFL Iron-Clad x Clockwork Blu BB H 3 12:58:56.36 1361.465 00:20:13 Yes
40 Lins Loft - WA 0476-AU16-CBF BB H 1 13:01:01.09 1354.133 00:22:18 Yes
41 A P C Loft - TX 16320-AU16-APC BB H 1 13:01:38.55 1351.947 00:22:55 Yes
42 Val & Bill - BC 1612-CU16-WCW BC H 2 13:03:17.47 1346.206 00:24:34 Yes
43 Western Loft - CA 0340-AU16-HAY BC H 1 13:03:42.81 1344.744 00:24:59 Yes
44 Sugar Land Farms - OR 0520-AU16-UVI BB H 1 13:03:46.49 1344.531 00:25:03 Yes
45 Dream Team - VT 6934-AU16-ARPU USA85 x dv1000 BC H 2 13:03:53.40 1344.133 00:25:10 Yes
46 Roy Kinser - VA 23579-AU16-FOYS BBWF H 1 13:03:55.67 1344.003 00:25:12 Yes
47 Silvercreek Loft - ON 1779-CU16-SILV GRIZ H 1 13:04:07.70 1343.310 00:25:24 Yes
48 Bob Bostwick - CA 0662-AU16-COCO BB H 1 13:04:08.44 1343.267 00:25:25 Yes
49 Kim Wong - VT 1189-AU16-CVR BCWF H 1 13:04:21.88 1342.495 00:25:39 Yes
50 King Rps Loft - CA 2597-AU16-SFR {{{ CLIFFJUMPER }}} BC H 1 13:04:32.54 1341.882 00:25:49 Yes
51 G T Family Loft - IL 0255-AU16-EHC BB H 1 13:04:56.24 1340.523 00:26:13 Yes
52 Kim Wong - VT 20935-AU16-ARPU BBPD H 2 13:05:19.38 1339.199 00:26:36 Yes
53 Fl Lin Loft - FL 4376-AU16-ARPU BC H 1 13:05:20.50 1339.135 00:26:37 Yes
54 Igor & Sons Loft - OR 10468-AU16-HOOD Mad dog DC H 1 13:05:40.18 1338.010 00:26:57 Yes
55 Bar S - UT 2200-AU16-OGN BC H 1 13:05:41.10 1337.958 00:26:58 Yes
56 Kim Wong - VT 20923-AU16-ARPU BC H 3 13:05:42.80 1337.861 00:26:59 Yes
57 Crooked Arrow Loft - IA 6886-AU16-NYKA BC H 3 13:07:43.65 1330.999 00:29:00 Yes
58 David Clausing - FL 0122-IF16-CLAU BB H 1 13:08:30.49 1328.359 00:29:47 Yes
59 Fl Lin Loft - FL 77779-AU16-ARPU PIED H 2 13:08:55.71 1326.941 00:30:12 Yes
60 Greek Connection - SC 0276-AU16-GREK 699x376 BBPD H 4 13:09:33.26 1324.837 00:30:50 Yes
61 Kastle Loft - KY 1646-AU16-KASL Kastle Prizzy BB H 1 13:09:42.44 1324.323 00:30:59 Yes
62 Dream Team - VT 3487-IF16-MH BC H 3 13:12:13.26 1315.943 00:33:30 Yes
63 Baldwin / Tilson - NC 6376-AU16-TENT BB H 1 13:12:15.62 1315.812 00:33:32 Yes
64 Donald Johnson - MA 3555-AU16-FOYS BB H 1 13:13:38.66 1311.244 00:34:55 Yes
65 Vandenbossche Loft - ME 6009-IF16-CMP Buster/7074 BB H 1 13:18:13.98 1296.322 00:39:31 Yes
66 Lazy A C Loft - IN 0614-AU16-INDY BB H 3 13:18:16.51 1296.187 00:39:33 Yes
67 Flyhome Loft - CA 18460-AU16-JEDD BC H 1 13:24:26.71 1276.654 00:45:43 Yes
68 Kwan Loft - CA 0698-AU16-KWAN DCWF H 1 13:29:51.45 1259.999 00:51:08 Yes
69 John Gutierrez - NM 25798-AU16-FOYS BC H 1 13:31:20.32 1255.516 00:52:37 Yes
70 Blue Bucket Stampede - OR 6237-AU16-CORP 3021x5271 BC H 1 13:31:31.84 1254.938 00:52:49 Yes
71 Flyhome Loft - CA 1645-AU16-FLYH BC H 2 13:31:56.30 1253.711 00:53:13 Yes
72 Cal-Tex Loft - CA 2767-AU16-MTZ Repeat Shot BC H 1 13:41:17.29 1226.213 01:02:34 Yes
73 Yo Yo Spetz - CA 1605-AU16-JEDD On The 3rd Day BBWF H 1 13:45:07.68 1215.266 01:06:24 Yes
74 Western Loft - CA 1578-AU16-SFR MAGAYON BBWF H 2 13:48:28.78 1205.870 01:09:45 Yes
75 Mels Loft - NY 0065-AU16-MTFL SON OF VOSSE BB H 1 13:56:22.75 1184.288 01:17:39 Yes
76 Flyhome Loft - CA 18456-AU16-JEDD BC H 3 13:56:59.12 1182.664 01:18:16 Yes
77 Nanez Family Lofts - WI 44159-AU16-AA Grandson IRON CLAD PIED H 4 14:03:48.67 1164.677 01:25:05 Yes
78 Yo Yo Spetz - CA 0238-AU16-VIP BB H 2 14:24:58.67 1112.223 01:46:15 Yes
79 Ojibwe Loft - OK 64625-AU16-ARPU BB H 1 14:29:12.31 1102.308 01:50:29 Yes
80 Dream Union - DC 16178-IF16-GUO BC H 1 14:34:00.22 1091.265 01:55:17 Yes
81 Haylett Loft - PA 64226-AU16-ARPU BB H 1 14:34:03.50 1091.141 01:55:20 Yes
82 Little Reata Loft - TX 16172-AU16-JETT BB H 1 14:34:22.24 1090.430 01:55:39 Yes
83 Igor & Sons Loft - OR 10467-AU16-HOOD Turchinov BC H 2 14:35:19.87 1088.249 01:56:37 Yes
84 Ken Easley & Son Racing - NM 4461-AU16-EASL Jolly Roger BBWF C 2 14:54:20.78 1046.809 02:15:37 Yes
85 David Clausing - FL 0140-IF16-CLAU BB H 2 15:03:22.74 1028.209 02:24:39 Yes
86 Igor & Sons Loft - OR 10444-AU16-MTHD Poroshenko BB H 3 15:03:51.24 1027.249 02:25:08 Yes
87 A-Lin Loft - ME 36361-AU16-AA BC H 2 15:07:16.29 1020.396 02:28:33 Yes
88 Ramon Guerrero & Refujio Martinez - WA 0389-AU16-SKI BC H 1 15:10:39.97 1013.679 02:31:57 Yes
89 Nanez Family Lofts - WI 6618-AU16-NFL RIK COOLS - DARK HORSE DC H 5 15:26:25.38 983.623 02:47:42 Yes
90 Kwan Loft - CA 0686-AU16-KWAN RB H 2 15:31:40.16 974.008 02:52:57 Yes
91 Western Loft - CA 0341-AU16-CHUI BB H 3 15:46:33.61 947.712 03:07:50 Yes
92 Lazy A C Loft - IN 0611-AU16-INDY BB H 4 16:03:18.14 919.792 03:24:35 Yes
93 Daehn/Miele - FL 0045-AU16-NWFL BB H 1 16:05:10.09 916.782 03:26:27 Yes
94 Ruybal Family Loft - CO 16398-AU16-PUEB RC H 1 16:09:28.22 909.916 03:30:45 Yes
95 Aimrude Syndicate - CA 0771-AU16-FMT 08010233 BB H 1 16:22:57.23 889.049 03:44:14 Yes
96 Flyhome Loft - CA 18449-AU16-JEDD BLAK H 4 18:14:25.00 747.366 05:35:42 Yes
97 A-Lin Loft - ME 45106-AU16-AA BB H 3 18:45:37.27 715.446 06:06:54 Yes
98 Lulus Loft - CA 0419-AU16-SD 7748 BB H 1 19:50:26.10 657.150 07:11:43 Yes
99 Fassio/Royer Team - UT 6376-AU16-SLI BB H 2 2017-05-19 05:30:09.30 572.433 09:09:26 Yes
100 Fleet Washington - DC 0377-AU16-FFR BB H 1 2017-05-19 07:31:52.05 505.108 11:11:09 Yes

There are 114 bird records

Note: These Race Results are unofficial and subject to change until verified by the Race Committee and declared final.


Click for forecast!